Regional Weather Roundup
Issued by NWS Grand Forks, ND

Home | Current Version | Previous Version | Text Only | Print | Product List | Glossary On
Versions: 1 2 3 4 5 6 7 8 9 10 11 12 13 14 15 16 17 18 19 20 21 22 23 24 25 26 27 28 29 30 31 32 33 34 35 36 37 38 39 40 41 42 43 44 45 46 47 48 49 50
000
ASUS43 KFGF 301610
RWRFGF
PRAIRIE TO PINES  WEATHER ROUNDUP
NATIONAL WEATHER SERVICE EASTERN NORTH DAKOTA/GRAND FORKS ND
1100 AM CDT SUN AUG 30 2015

 **SATELLITE DATA USED TO AUGMENT SKY COVER AT AUTOMATED STATIONS**
 *****  WEATHER ACROSS EASTERN NORTH DAKOTA  *****

CITY           SKY/WX    TMP DP  RH WIND       PRES   REMARKS
GRAND FORKS    MOSUNNY   73  65  75 S14       29.76
GRAND FRKS AFB MOSUNNY   72  66  81 S14       29.76F
GRAND FRKS NWS   N/A     72 N/A N/A S18         N/A
DEVILS LAKE    MOSUNNY   77  63  61 S13       29.72S
FARGO          SUNNY     74  64  71 S14G24    29.82S
WAHPETON ARPT  SUNNY     72  61  68 S14G20    29.86S
$$

 ***** WEATHER ACROSS CENTRAL AND WESTERN NORTH DAKOTA  *****

CITY           SKY/WX    TMP DP  RH WIND       PRES   REMARKS
BISMARCK       MOSUNNY   81  60  48 S12       29.72
MINOT          MOSUNNY   83  57  41 S9        29.64
JAMESTOWN      SUNNY     75  65  70 S14       29.77F
MINOT AFB      PTSUNNY   84  59  42 S8        29.63F
GARRISON         N/A     78  58  49 S9        29.69S
WILLISTON      PTSUNNY   80  52  37 S8        29.66
DICKINSON      CLOUDY    83  46  27 S15       29.71
HETTINGER      CLOUDY    79  50  36 S6        29.76S
$$

 *****  OTHER AIRPORT OBSERVATIONS IN OUR AREA  *****

CITY           SKY/WX    TMP DP  RH WIND       PRES   REMARKS
WALHALLA       FAIR      73  73 100 MISG      29.71F
GRAFTON AIRPOR CLOUDY    68  68 100 S14       29.76S
VALLEY CITY AR FAIR      73  70  88 S16       29.80S
CANDO          NOT AVBL
CAVALIER APRT  FAIR      73  68  83 S12G17    29.73S
GWINNER        FAIR      75  66  73 S14       29.83F
SHEYENNE NWR     N/A     76  67  74 S8        29.95S
ROLLA            N/A     77  64  65 S7        29.72S
 ***** THE ABOVE OBSERVATIONS ARE NON NWS ARE NOT QUALITY
       CONTROLLED AND MAY MIS-REPORT RAIN FOR SNOW...
$$

  *****  WEATHER ACROSS NORTHERN MINNESOTA  *****

CITY           SKY/WX    TMP DP  RH WIND       PRES   REMARKS
FLAG ISLAND    PTSUNNY   70  64  83 S9        29.80S
WARROAD        CLOUDY    73  68  83 S6        29.81S
ROSEAU         PTSUNNY   73  66  78 S10       29.80
HALLOCK        MOSUNNY   73  68  83 S18       29.74F
THF RVR FALLS  PTSUNNY  N/A N/A N/A S8        29.80S
BAUDETTE       CLOUDY    73  66  78 SW10      29.82S
WASKISH        PTSUNNY   73  66  78 CALM      29.84R
CROOKSTON      MOSUNNY   75  66  73 S17G24    29.80S
STEPHEN NDAWN    N/A     73  68  83 S12         N/A
GREENBUSH NDAW   N/A     75  66  73 S8          N/A
$$
  *****  WEATHER ACROSS CENTRAL AND WEST MINNESOTA  *****

CITY           SKY/WX    TMP DP  RH WIND       PRES   REMARKS
FOSSTON        MOSUNNY   75  63  64 S14       29.84F
BEMIDJI        MOSUNNY   71  64  80 S8        29.88S
PARK RAPIDS    SUNNY     72  62  71 S10       29.90S
ELBOW LAKE     FAIR      69  64  83 S15       29.89S
WADENA         SUNNY     72  64  78 S8        29.91S
DETROIT LAKES  SUNNY     72  63  73 S14       29.88F
MOORHEAD       SUNNY     72  64  78 S18       29.84S
FERGUS FALLS   SUNNY     72  64  78 S13       29.87F
MORRIS MN      SUNNY     72  66  83 S13       29.90S
STAPLES        SUNNY     70  63  78 S8        29.92F
$$
  *****  WEATHER ELSEWHERE ACROSS MINNESOTA  *****

CITY           SKY/WX    TMP DP  RH WIND       PRES   REMARKS
DULUTH         SUNNY     71  62  73 SW10      29.93F
INTRNTL FALLS  MOSUNNY   72  66  81 VRB7      29.85S
ELY            PTSUNNY   66  63  88 S7        29.91S
CLOQUET        SUNNY     70  61  73 SW10      29.94F
WHEATON        SUNNY     70  63  78 SE13      29.88F
BRAINERD       CLOUDY    67  61  81 S12       29.94F
HIBBING        PTSUNNY   69  63  81 S8        29.92S
ALEXANDRIA     SUNNY     70  63  78 S14       29.94S
SAINT CLOUD    MOSUNNY   67  61  81 S10       29.96F
MINNEAPOLIS    MOSUNNY   68  60  75 S6        30.01S
$$

  *****  WEATHER ACROSS SOUTH DAKOTA  *****

CITY           SKY/WX    TMP DP  RH WIND       PRES   REMARKS
SIOUX FALLS    PTSUNNY   66  62  87 S10       29.99S
BROOKINGS      SUNNY     68  61  77 S12       29.98S
WATERTOWN      SUNNY     72  64  76 S12       29.92S
HURON          MOSUNNY   71  64  78 S15G23    29.89S
SISSETON         N/A     80  65  59 S9        29.84F
ABERDEEN       MOSUNNY   72  64  76 S16       29.84F
MITCHELL       SUNNY     73  65  75 S14       29.92F
PIERRE         SUNNY     85  56  37 S10       29.80F
MOBRIDGE       SUNNY     79  61  53 SE15      29.75F
RAPID CITY     MOSUNNY   80  54  40 SE13      29.82F
$$

  *****  SOME WEATHER IN NEARBY STATES *****

CITY           SKY/WX    TMP DP  RH WIND       PRES   REMARKS
GLASGOW MT     PTSUNNY   73  50  44 NW20G26   29.78R
GREAT FALLS MT CLOUDY    66  52  60 SW9       29.83S
CHEYENNE WY    SUNNY     85  36  17 W14       30.14S
SCOTTSBLUFF NE SUNNY     76  48  37 SE7       29.98S
OMAHA NE       CLOUDY    67  63  87 S8        30.07R FOG
DES MOINES IA  CLOUDY    67  64  90 SE7       30.08R
DAVENPORT IA   PTSUNNY   69  65  86 CALM      30.11R
CHICAGO IL     CLOUDY    70  64  81 NE5       30.08S
EAU CLAIRE WI  CLOUDY    68  62  81 SW10      30.04R
LA CROSSE WI   CLOUDY    67  63  87 S7        30.07R
$$

  *****  SOME NATIONAL WEATHER *****

CITY           SKY/WX    TMP DP  RH WIND       PRES   REMARKS
LA GUARDIA NY  PTSUNNY   85  63  47 SW5       30.09F
RALEIGH NC     PTSUNNY   83  61  47 CALM      30.18F
ATLANTA GA     CLOUDY    69  63  81 NE15      30.16S
NEW ORLEANS LA MOSUNNY   86  67  52 N8        30.07R
OKLAHOMA CITY  MOSUNNY   81  67  62 N3        30.03R
ALBUQUERQUE NM MOSUNNY   75  50  41 S3        30.26S
SALT LAKE CITY PTSUNNY   77  49  37 N7        29.99R
LOS ANGELES CA MOSUNNY   77  67  71 SE6       29.91R
BOISE ID       SUNNY     66  44  45 CALM      30.00R
SEATTLE WA     CLOUDY    56  54  93 S6        29.89R
$$

*** WEATHER ACROSS MANITOBA...SASKATCHEWAN AND ONTARIO ***
                ***ONTARIO***

CITY           SKY/WX    TMP DP  RH WIND       PRES   REMARKS
GERALDTON      CLOUDY    72  63  73 SW12G20   29.79F FOG
THUNDER BAY    PTSUNNY   68  63  83 E6        29.85F
SIOUX LOOKOUT  PTSUNNY   73  66  78 SW8       29.81S
TORONTO        PTSUNNY   75  61  60 VRB2      30.09F
BIG TROUT LK   CLOUDY    68  59  73 N10       29.67R
PICKLE LAKE    PTSUNNY   73  64  73 W8        29.73R
DRYDEN         SUNNY     72  64  78 S9        29.82S
KENORA         CLOUDY    68  66  94 S9        29.82R FOG
$$
                *** MANITOBA***

CITY           SKY/WX    TMP DP  RH WIND       PRES   REMARKS
BRANDON        PTSUNNY   75  66  73 E8        29.67S SMOKE
DAUPHIN        MOSUNNY   68  61  77 E6        29.69R
ISLAND LAKE    CLOUDY    63  59  88 N7        29.77R
PILOT MOUND      N/A     82  64  54 S12         N/A
THE PAS        CLOUDY    63  59  88 E9G21     29.64F
THOMPSON       PTSUNNY   52  46  82 E8G17     29.80F
WINNIPEG       PTSUNNY   75  70  83 S12       29.73S
LYNN LAKE      CLOUDY    52  48  87 MISG      29.73F
$$
                ***SASKATCHEWAN***

CITY           SKY/WX    TMP DP  RH WIND       PRES   REMARKS
ESTEVAN        PTSUNNY   81  59  47 SE6       29.62S SMOKE
KINDERSLEY     PTSUNNY   68  39  34 SW23G29   29.64S
LLOYDMINSTER   PTSUNNY   64  46  52 W5        29.52S
PRINCE ALBERT  CLOUDY    68  59  73 SW5       29.55S
REGINA         LGT RAIN  64  54  68 NW15G24   29.70R SMOKE
YORKTON        SUNNY     77  57  50 SE8       29.61F HAZE
N. BATTLEFORD    N/A     70  43  37 SW13      29.58S
LA RONGE       PTSUNNY   66  61  82 SE16G22   29.53F
SASKATOON      PTSUNNY   64  50  59 SW10G17   29.63R
SWIFT CURRENT  PTSUNNY   68  43  40 W13       29.74R
$$
NOTE: THESE ARE AUTOMATED STATIONS WITH LIMITED QUALITY CONTROL
      "FAIR" INDICATES FEW OR NO CLOUDS BELOW 12,000 FEET WITH NO
      SIGNIFICANT WEATHER AND/OR OBSTRUCTIONS TO VISIBILITY.
      SKY/WX - SKY CONDITION AND SIGNIFICANT WEATHER.
      TMP - AIR TEMPERATURE.    DP   - DEWPOINT TEMPERATURE.
      RH  - RELATIVE HUMIDITY.  PRES - PRESSURE.
      HX  - HEAT INDEX.         WCI  - WIND CHILL INDEX.
$



USA.gov is the U.S. government's official web portal to all federal, state and local government web resources and services.